www.pogodaiklimat.ru

Погода и климат >> Архив погоды >> Иран >> Джаск


ПОГОДА в Джаске

  • Прогноз погоды в Джаске
  • Монитор погоды в Джаске

АРХИВ ПОГОДЫ в Джаске

Время (UTC), дата Ветер
(напр.,м/с)
 
Видим.   Явления Облачность Т
(С)
Тd
(С)
f
(%)
Тe
(С)
Тes
(С)
Комфортность P
(гПа)
Po
(гПа)
Тmin
(С)
Tmax
(С)
R
(мм)
R24
(мм)
S
(см)
18 12.06 ЮВ 2 6000 м мгла ясно +33.6 +22.8 53 +43 +43 опасность
перегрева
998.6 998.0
21 12.06 СЗ 2 6000 м мгла ясно +32.8 +18.0 41 +37 +37 очень
душно
997.7 997.2
00 13.06 ЮВ 2 6000 м мгла ясно +32.3 +17.3 41 +36 +36 очень
душно
996.8 996.2
03 13.06 В 2 6000 м мгла ясно +33.2 +17.6 40 +37 +40 очень
душно
998.2 997.7 +31.3 666
06 13.06 ЮВ 2 7000 м мгла ясно +34.0 +30.1 80 +61 +78 опасность
перегрева
999.0 998.4
09 13.06 Ю 4 10 км ясно +35.4 +25.6 57 +50 +65 опасность
перегрева
998.5 997.9
12 13.06 СЗ 2 10 км ясно +35.5 +30.1 74 +63 +71 опасность
перегрева
997.1 996.5
15 13.06 нст 1 10 км ясно +32.9 +28.2 76 +54 +54 опасность
перегрева
997.2 996.6 +36.5
18 13.06 нст 1 8000 м дымка ясно +31.5 +28.2 83 +52 +52 опасность
перегрева
997.6 997.1
21 13.06 СВ 2 8000 м мгла ясно +32.2 +23.7 61 +44 +44 опасность
перегрева
997.0 996.5
00 14.06 В 3 6000 м дымка ясно +29.7 +26.4 82 +45 +45 опасность
перегрева
997.0 996.4
03 14.06 В 4 6000 м дымка ясно +29.6 +27.3 87 +47 +49 опасность
перегрева
998.7 998.1 +29.6
06 14.06 ЮВ 2 7000 м мгла ясно +32.4 999.6 999.1
09 14.06 нст 1 8000 м мгла ясно +34.5 +28.3 70 +56 +81 опасность
перегрева
998.5 998.0
12 14.06 Ю 3 8000 м мгла ясно +34.7 996.9 996.4
15 14.06 Ю 2 7000 м мгла ясно +32.5 +28.4 79 +54 +54 опасность
перегрева
996.7 996.1 +36.4
18 14.06 СЗ 2 4000 м дымка ясно +30.6 +28.2 87 +51 +51 опасность
перегрева
997.6 997.1
21 14.06 нст 1 4000 м дымка ясно +30.8 +28.0 85 +51 +51 опасность
перегрева
996.8 996.3
00 15.06 В 3 3000 м дымка ясно +30.0 +27.5 86 +48 +48 опасность
перегрева
996.1 995.6
03 15.06 В 2 1000 м дымка ясно +28.8 +27.7 94 +47 +50 опасность
перегрева
997.4 996.9 +28.8
06 15.06 нст 1 3000 м дымка ясно +33.0 +30.0 84 +60 +79 опасность
перегрева
998.3 997.7
09 15.06 Ю 4 4000 м мгла ясно +34.2 +28.8 74 +58 +72 опасность
перегрева
998.2 997.7 666
12 15.06 Ю 3 8000 м мгла ясно +33.6 +30.1 82 +61 +68 опасность
перегрева
996.9 996.3
15 15.06 ЮВ 2 8000 м дымка ясно +32.8 +29.6 83 +58 +58 опасность
перегрева
996.8 996.3 +34.8 666
18 15.06 ЮВ 2 6000 м дымка ясно +31.7 +29.5 88 +56 +56 опасность
перегрева
997.4 996.8
21 15.06 СЗ 3 6000 м дымка ясно +31.1 +29.3 90 +55 +55 опасность
перегрева
996.8 996.3
00 16.06 СЗ 3 6000 м дымка ясно +31.4 +28.3 84 +53 +53 опасность
перегрева
995.7 995.1
03 16.06 В 7 6000 м дымка ясно +30.4 +28.0 87 +50 +51 опасность
перегрева
998.2 997.7 +30.2 666
06 16.06 ЮВ 6 6000 м дымка ясно +32.3 1000.0 999.5
09 16.06 ЮВ 6 6000 м дымка ясно +32.6 +29.5 84 +58 +66 опасность
перегрева
999.6 999.1 666
12 16.06 ЮВ 2 6000 м мгла ясно +33.8 +30.1 81 +61 +69 опасность
перегрева
998.0 997.5
15 16.06 ЮВ 2 6000 м мгла ясно +32.5 +28.4 79 +54 +54 опасность
перегрева
997.8 997.3 +33.8
18 16.06 ЮВ 2 6000 м дымка ясно +30.5 +27.4 84 +49 +49 опасность
перегрева
998.6 998.0
21 16.06 С 3 6000 м мгла ясно +31.9 +26.6 74 +49 +49 опасность
перегрева
997.2 996.6
00 17.06 Ю 4 7000 м мгла ясно +32.4 +25.9 69 +48 +48 опасность
перегрева
997.2 996.6
03 17.06 В 7 6000 м дымка ясно +30.7 +27.8 85 +50 +51 опасность
перегрева
999.2 998.6 +30.4
06 17.06 В 7 6000 м дымка ясно +32.5 1000.9 1000.4
09 17.06 ЮВ 6 6000 м мгла ясно +32.7 +28.6 79 +55 +63 опасность
перегрева
1000.2 999.6 666
12 17.06 ЮВ 5 6000 м дымка ясно +32.5 998.1 997.5
15 17.06 ЮВ 3 6000 м мгла ясно +32.0 +28.0 79 +52 +52 опасность
перегрева
997.4 996.9 +32.8 666
18 17.06 З 2 6000 м дымка ясно +30.9 +27.5 82 +50 +50 опасность
перегрева
998.7 998.2
21 17.06 СЗ 2 6000 м дымка ясно +30.4 +27.4 84 +49 +49 опасность
перегрева
997.5 996.9
00 18.06 СЗ 2 6000 м дымка ясно +30.2 +27.7 87 +49 +49 опасность
перегрева
996.2 995.6
03 18.06 В 3 7000 м дымка ясно +30.7 +27.8 85 +50 +53 опасность
перегрева
997.1 996.6 +29.1
06 18.06 ЮВ 4 6000 м дымка 1/1 400 м
[St]
+32.1 +30.2 90 +60 +70 опасность
перегрева
998.2 997.7
09 18.06 ЮЗ 3 6000 м мгла ясно +33.3 +29.2 79 +57 +75 опасность
перегрева
997.6 997.0 666
12 18.06 Ю 2 7000 м мгла ясно +34.4 +30.1 78 +61 +70 опасность
перегрева
995.6 995.1
15 18.06 Ю 2 7000 м мгла ясно +34.1 +28.2 71 +55 +55 опасность
перегрева
995.1 994.5 +34.8
18 18.06 З 3 6000 м мгла ясно +32.5 +28.1 78 +54 +54 опасность
перегрева
995.7 995.2
21 18.06 СВ 2 5000 м дымка ясно +31.5 +28.4 84 +53 +53 опасность
перегрева
995.1 994.5
00 19.06 штиль 0 5000 м дымка ясно +30.4 +27.4 84 +49 +49 опасность
перегрева
994.1 993.5
03 19.06 В 5 1000 м дымка 10/10 150 м
[St]
+31.1 +27.9 83 +51 +51 опасность
перегрева
995.3 994.8 +30.0
06 19.06 ЮВ 6 7000 м дымка ясно +32.6 995.8 995.3
12 19.06 ЮВ 4 7000 м мгла ясно +34.2 993.9 993.3
15 19.06 В 4 7000 м дымка ясно +33.0 +29.4 81 +58 +58 опасность
перегрева
994.0 993.4 +34.2

 

Местоположение метеостанции Джаск (Иран): широта 25.63 долгота 57.77 высота над уровнем моря 3 м.

В архиве по умолчанию представлена погода в Джаске за последнюю неделю. Архивные данные за месяц целиком и за предыдущие месяцы, начиная с января 2011 года, Вы можете получить, выбрав интересующий диапазон дат из раскрывающегося списка и нажав кнопку "Ввод!".


*Определитесь, кто Вы:
робот инопланетянин человек

Внимание! Время в таблицах - всемирное. Для получения местного времени необходимо прибавить поправку, которая равна 3.5 ч.

Смотрите также архив погоды в соседних городах и на ближайших метеорологических станциях:

Погода в Дибе (Оман) (152 км)
Погода в Фуджейре (ОАЭ) (156 км)
Погода в Эль-Хасаб аэропорту (Оман) (165 км)
Погода в Эль-Хасабе (Оман) (166 км)
Погода в Сухаре (Оман) (173 км)
Погода в Рай-эль-Хайма аэропорту (ОАЭ) (185 км)
Погода в Эс-Сувейке (Оман) (208 км)
Погода в Бендер-Аббасе (Иран) (225 км)
Погода в Шардже (ОАЭ) (228 км)
Погода в Сибе (Оман) (234 км)

Пояснения к столбцам:

Ветер - указаны скорость ветра в м/с - средняя за 10 мин, порывы в срок и между сроками (в фигурных скобках) и направление, откуда дует ветер: С - северный, СВ - северо-восточный, В - восточный, ЮВ - юго-восточный, Ю - южный, ЮЗ - юго-западный, З - западный, СЗ - северо-западный.
Видимость - горизонтальная дальность видимости в метрах или километрах. При видимости от 1 до 10 км при отсутствии осадков обычно наблюдается дымка, при ухудшении видимости до 1 км и менее - туман. В сухую погоду видимость может ухудшаться дымом, пылью или мглою.
Явления - указаны атмосферные явления, наблюдавшиеся в срок или в последний час перед сроком; фигурными скобками обозначены явления, наблюдавшиеся между сроками (за 1-3 часа до срока); квадратными скобками обозначены град или гололедные отложения с указанием их диаметра в мм.
Облачность - указаны через наклонную черту общая и нижняя облачность в баллах и высота нижней границы облаков в метрах; квадратными скобками обозначены формы облаков: Ci - перистые, Cs - перисто-слоистые, Cc - перисто-кучевые, Ac - высококучевые, As - высокослоистые, Sc - слоисто-кучевые, Ns - слоисто-дождевые, Cu - кучевые, Cb - кучево-дождевые. Подробнее классификацию облаков см. в Атласе облаков (PDF).
T - Температура воздуха - температура, измеренная на высоте 2 м над землей.
Td - Температура точки росы - температура, при понижении до которой содержащийся в воздухе водяной пар достигнет насыщения.
f - Относительная влажность воздуха - влажноcть воздуха, измеренная на высоте 2 м над землей.
Te - Эффективная температура - температура, которую ощущает одетый по сезону человек в тени. Характеристика душности погоды. При расчете учитывается влияние влажности воздуха и скорости ветра на теплоощущения человека.
Tes - Эффективная температура на солнце - температура, которую ощущает человек, с поправкой на солнечный нагрев. Характеристика знойности погоды. Зависит от высоты солнца над горизонтом, облачности и скорости ветра. Ночью, в пасмурную погоду, а также при ветре 12 м/с и более поправка равна нулю.
P - Атмосферное давление - приведенное к уровню моря атмосферное давление.
Po - Атмосферное давление - измеренное на уровне метеостанции атмосферное давление.
Tmin - Минимальная температура - минимум температуры воздуха на высоте 2 м над землей.
Tmax - Максимальная температура - максимум температуры воздуха на высоте 2 м над землей.
R - Количество осадков - Количество выпавших осадков за период времени, мм. При наведении курсора мыши на число - период времени, за который выпало указанное количество осадков.
R24 - Количество осадков - Количество выпавших осадков за 24 часа, мм.
S - Снежный покров - Высота снежного покрова, см. При наведении курсора мыши на число - состояние снежного покрова и степень покрытия местности в баллах.